This is the latest recevied weather packets stored in our database for station/object ac2ev. If no packets are shown the sender has not sent any weather packets the latest 10 day(s).
| Time | Temp. | Humidity | Pressure | Rain* | Wind** | Luminosity | Snow |
|---|---|---|---|---|---|---|---|
| 1787775140 | 25° C | 69% | 1014.2 hPa | 0 mm | - | - | - |
| 1787774840 | 25° C | 69% | 1014.2 hPa | 0 mm | - | - | - |
| 1787774538 | 25.56° C | 69% | 1014.3 hPa | 0 mm | - | - | - |
| 1787774235 | 25° C | 69% | 1014.3 hPa | 0 mm | - | - | - |
| 1787774057 | 25° C | 69% | 1014.4 hPa | 0 mm | - | - | - |
| 1787773634 | 25° C | 69% | 1014.4 hPa | 0 mm | - | - | - |
| 1787773335 | 25.56° C | 68% | 1014.5 hPa | 0 mm | - | - | - |
| 1787773032 | 25.56° C | 68% | 1014.5 hPa | 0 mm | - | - | - |
| 1787772732 | 25° C | 68% | 1014.6 hPa | 0 mm | - | - | - |
| 1787772432 | 25° C | 69% | 1014.6 hPa | 0 mm | - | - | - |
| 1787772130 | 25° C | 67% | 1014.7 hPa | 0 mm | - | - | - |
| 1787771828 | 25° C | 70% | 1014.8 hPa | 0 mm | - | - | - |
| 1787771528 | 25.56° C | 70% | 1014.9 hPa | 0 mm | - | - | - |
| 1787771228 | 25.56° C | 69% | 1014.9 hPa | 0 mm | - | - | - |
| 1787770926 | 25.56° C | 68% | 1014.9 hPa | 0 mm | - | - | - |
| 1787770624 | 25.56° C | 69% | 1014.9 hPa | 0 mm | - | - | - |
| 1787770323 | 25.56° C | 68% | 1015.1 hPa | 0 mm | - | - | - |
| 1787770024 | 25° C | 69% | 1015.1 hPa | 0 mm | - | - | - |
| 1787769722 | 25.56° C | 67% | 1015.2 hPa | 0 mm | - | - | - |
| 1787769424 | 25.56° C | 67% | 1015.2 hPa | 0 mm | - | - | - |
| 1787769123 | 25.56° C | 66% | 1015.3 hPa | 0 mm | - | - | - |
| 1787768823 | 26.11° C | 63% | 1015.3 hPa | 0 mm | - | - | - |
| 1787768522 | 26.67° C | 62% | 1015.4 hPa | 0 mm | - | - | - |
| 1787768222 | 26.67° C | 59% | 1015.4 hPa | 0 mm | - | - | - |
| 1787767923 | 27.22° C | 54% | 1015.4 hPa | 0 mm | - | - | - |
* Rain latest hour (hover to see other rain measurements)
** Current wind speed in m/s (hover to see current wind gust speed)